1491220800.54,1276,16.63,74114.0,0.83,0.25,0.37,0,*77
1491220801.74,1277,16.63,74108.5,0.85,0.37,0.41,0,*72
1491220802.98,1278,16.63,74108.8,0.83,0.37,0.37,0,*7A
1491220804.21,1279,16.63,74112.3,0.83,0.33,0.37,0,*7F
1491220805.42,1280,16.63,74112.8,0.85,0.13,0.25,0,*7E
1491220806.65,1281,16.63,74112.0,0.83,0.13,0.25,0,*79
1491220807.86,1282,16.63,74110.5,0.85,0.29,0.37,0,*76
1491220809.07,1283,16.63,74114.3,0.85,0.29,0.41,0,*76
1491220810.3,1284,16.63,74110.5,0.83,0.33,0.37,0,*7D
1491220811.51,1285,16.63,74110.3,0.85,0.37,0.41,0,*7F
1491220812.71,1286,16.63,74114.5,0.85,0.37,0.41,0,*7C
1491220813.92,1287,16.63,74114.5,0.85,0.29,0.37,0,*73
1491220815.13,1288,16.63,74114.5,0.85,0.25,0.37,0,*70
1491220816.35,1289,16.63,74116.8,0.85,0.29,0.29,0,*72
1491220817.56,1290,16.63,74116.5,0.85,0.29,0.29,0,*7A
1491220818.79,1291,16.63,74112.5,0.83,0.21,0.33,0,*7E
1491220820.0,1292,16.63,74110.5,0.85,0.29,0.37,0,*77
1491220821.21,1293,16.63,74112.5,0.85,0.25,0.37,0,*7A
1491220822.45,1294,16.63,74114.8,0.83,0.25,0.37,0,*7B
1491220823.66,1295,16.63,74116.0,0.85,0.29,0.37,0,*70
1491220824.87,1296,16.63,74114.8,0.85,0.41,0.41,0,*7C
1491220826.08,1297,16.63,74110.8,0.85,0.29,0.41,0,*73
1491220827.29,1298,16.63,74114.5,0.85,0.29,0.37,0,*7D
1491220828.5,1299,16.63,74112.0,0.85,0.25,0.29,0,*7F
1491220829.7,1300,16.63,74112.8,0.85,0.25,0.41,0,*70
1491220830.91,1301,16.63,74114.5,0.85,0.25,0.25,0,*73
1491220832.12,1302,16.63,74110.0,0.85,0.29,0.37,0,*7F
1491220833.33,1303,16.63,74108.5,0.85,0.29,0.41,0,*7F
1491220834.54,1304,16.63,74110.8,0.85,0.25,0.37,0,*75
1491220835.75,1305,16.63,74110.5,0.85,0.25,0.37,0,*74
1491220836.96,1306,16.63,74110.5,0.85,0.29,0.41,0,*7A
1491220838.17,1307,16.63,74114.8,0.85,0.25,0.37,0,*76
1491220839.37,1308,16.63,74110.5,0.85,0.17,0.25,0,*7B
1491220840.6,1309,16.63,74114.5,0.87,0.13,0.29,0,*70
1491220841.83,1310,16.63,74110.3,0.87,0.13,0.25,0,*74
1491220843.04,1311,16.63,74112.8,0.85,0.17,0.25,0,*73
1491220844.24,1312,16.63,74110.5,0.85,0.13,0.13,0,*71
1491220845.47,1313,16.63,74112.8,0.87,0.17,0.25,0,*73
1491220846.71,1314,16.63,74112.0,0.83,0.13,0.25,0,*74
1491220847.92,1315,16.63,74112.8,0.85,0.25,0.37,0,*75
1491220849.13,1316,16.63,74110.5,0.85,0.25,0.37,0,*76
1491220850.34,1317,16.63,74110.3,0.85,0.25,0.37,0,*77
1491220851.54,1318,16.63,74108.5,0.85,0.29,0.41,0,*75
1491220852.76,1319,16.63,74108.5,0.85,0.25,0.37,0,*79
1491220853.96,1320,16.63,74114.3,0.85,0.37,0.41,0,*71
1491220855.19,1321,16.63,74110.3,0.83,0.33,0.33,0,*77
1491220856.4,1322,16.63,74112.5,0.85,0.29,0.29,0,*72
1491220857.61,1323,16.63,74114.5,0.85,0.25,0.29,0,*7F
1491220858.85,1324,16.63,74110.0,0.87,0.25,0.29,0,*7A
1491220860.08,1325,16.63,74110.3,0.87,0.37,0.41,0,*76
1491220861.3,1326,16.63,74110.8,0.87,0.37,0.41,0,*75
1491220862.53,1327,16.63,74110.3,0.87,0.37,0.41,0,*74
1491220863.77,1328,16.63,74108.8,0.87,0.41,0.47,0,*7C
1491220865.01,1329,16.63,74112.5,0.87,0.25,0.37,0,*78
1491220866.21,1330,16.63,74108.8,0.89,0.33,0.33,0,*7D
1491220867.44,1331,16.63,74110.0,0.87,0.25,0.25,0,*72
1491220868.67,1332,16.63,74110.5,0.87,0.13,0.13,0,*71
1491220869.87,1333,16.63,74112.5,0.87,0.09,0.17,0,*4F
1491220871.08,1334,16.63,74112.3,0.87,0.09,0.13,0,*4C
1491220872.29,1335,16.63,74112.5,0.87,0.09,0.17,0,*49
1491220873.49,1336,16.63,74110.0,0.85,0.17,0.17,0,*77
1491220874.7,1337,16.63,74110.0,0.85,0.25,0.29,0,*7A
1491220875.91,1338,16.63,74108.5,0.85,0.25,0.29,0,*75
1491220877.15,1339,16.63,74110.3,0.87,0.25,0.29,0,*76
1491220878.38,1340,16.63,74110.0,0.87,0.25,0.29,0,*78
1491220879.62,1341,16.63,74110.3,0.87,0.29,0.37,0,*7A
1491220880.85,1342,16.63,74112.5,0.87,0.29,0.41,0,*78
1491220882.08,1343,16.63,74110.8,0.87,0.25,0.41,0,*75
1491220883.29,1344,16.63,74108.5,0.87,0.37,0.43,0,*73
1491220884.52,1345,16.63,74108.5,0.87,0.37,0.41,0,*70
1491220885.75,1346,16.63,74112.3,0.87,0.29,0.37,0,*7D
1491220886.96,1347,16.63,74112.8,0.89,0.29,0.41,0,*73
1491220888.16,1348,16.63,74110.5,0.89,0.33,0.29,0,*79
1491220889.4,1349,16.63,74110.0,0.87,0.25,0.37,0,*7E
1491220890.6,1350,16.63,74110.8,0.89,0.33,0.41,0,*7E
1491220891.8,1351,16.63,74108.8,0.89,0.29,0.41,0,*74
1491220893.03,1352,16.63,74114.3,0.87,0.13,0.17,0,*73
1491220894.23,1353,16.63,74112.3,0.89,0.17,0.17,0,*78
1491220895.44,1354,16.63,74114.3,0.87,0.09,0.17,0,*4E
1491220896.65,1355,16.63,74114.0,0.89,0.21,0.29,0,*76
1491220897.88,1356,16.63,74112.3,0.87,0.13,0.17,0,*77
1491220899.11,1357,16.63,74112.8,0.87,0.17,0.29,0,*7F
1491220900.32,1358,16.63,74112.0,0.89,0.17,0.21,0,*76
1491220901.55,1359,16.63,74110.8,0.87,0.13,0.29,0,*75
1491220902.78,1360,16.63,74112.8,0.87,0.17,0.29,0,*7B
1491220903.98,1361,16.63,74114.8,0.89,0.17,0.29,0,*74
1491220905.19,1362,16.63,74114.0,0.89,0.17,0.21,0,*7F
1491220906.4,1363,16.63,74114.3,0.89,0.17,0.29,0,*76
1491220907.61,1364,16.63,74112.8,0.89,0.17,0.21,0,*79
1491220908.81,1365,16.63,74110.5,0.89,0.17,0.17,0,*7D
1491220910.04,1366,16.63,74114.3,0.87,0.17,0.17,0,*70
1491220911.24,1367,16.63,74114.5,0.89,0.13,0.17,0,*7B
1491220912.44,1368,16.63,74114.8,0.89,0.17,0.29,0,*7D
1491220913.65,1369,16.63,74114.0,0.89,0.29,0.33,0,*7A
1491220914.85,1370,16.63,74114.8,0.89,0.29,0.41,0,*77
1491220916.08,1371,16.63,74110.0,0.87,0.17,0.25,0,*77
1491220917.29,1372,16.63,74112.0,0.89,0.21,0.29,0,*73
1491220918.52,1373,16.63,74112.3,0.87,0.17,0.29,0,*79
1491220919.73,1374,16.63,74114.0,0.89,0.29,0.33,0,*76
1491220920.96,1375,16.63,74112.0,0.87,0.25,0.41,0,*70
1491220922.19,1376,16.63,74112.0,0.87,0.25,0.25,0,*71
1491220923.4,1377,16.63,74112.3,0.89,0.21,0.29,0,*76
1491220924.61,1378,16.63,74112.8,0.89,0.21,0.21,0,*71
1491220925.81,1379,16.63,74112.8,0.89,0.17,0.17,0,*70
1491220927.03,1380,16.63,74114.0,0.89,0.21,0.21,0,*76
1491220928.23,1381,16.63,74112.3,0.89,0.17,0.29,0,*7A
1491220929.44,1382,16.63,74112.0,0.89,0.21,0.21,0,*74
1491220930.65,1383,16.63,74114.8,0.89,0.17,0.17,0,*75
1491220931.85,1384,16.63,74116.3,0.89,0.17,0.21,0,*77
1491220933.06,1385,16.63,74114.5,0.89,0.17,0.29,0,*7E
1491220934.26,1386,16.63,74114.8,0.89,0.21,0.33,0,*73
1491220935.49,1387,16.63,74112.5,0.87,0.17,0.25,0,*7E
1491220936.7,1388,16.63,74110.0,0.89,0.29,0.33,0,*75
1491220937.91,1389,16.63,74112.8,0.91,0.37,0.43,0,*75
1491220939.11,1390,16.63,74110.5,0.89,0.25,0.41,0,*75
1491220940.32,1391,16.63,74114.0,0.89,0.29,0.41,0,*78
1491220941.52,1392,16.63,74114.0,0.89,0.33,0.41,0,*70
1491220942.73,1393,16.63,74114.3,0.89,0.41,0.41,0,*74
1491220943.93,1394,16.63,74110.3,0.89,0.33,0.41,0,*76
1491220945.14,1395,16.63,74112.3,0.89,0.29,0.29,0,*72
1491220946.34,1396,16.63,74112.0,0.89,0.17,0.29,0,*7C
1491220947.55,1397,16.63,74112.0,0.89,0.17,0.21,0,*75
1491220948.78,1398,16.63,74114.5,0.91,0.25,0.25,0,*76
1491220949.99,1399,16.63,74110.0,0.89,0.17,0.29,0,*73
1491220951.19,1400,16.63,74112.8,0.89,0.29,0.41,0,*77
1491220952.4,1401,16.63,74114.3,0.89,0.29,0.41,0,*76
1491220953.58,1402,16.63,74114.8,0.89,0.33,0.43,0,*7C
1491220954.76,1403,16.63,74112.3,0.89,0.33,0.43,0,*7D
1491220955.96,1404,16.63,74112.8,0.89,0.33,0.33,0,*7D
1491220957.17,1405,16.63,74112.5,0.89,0.21,0.29,0,*74
1491220958.38,1406,16.63,74112.5,0.89,0.21,0.33,0,*7C
1491220959.58,1407,16.63,74114.5,0.89,0.33,0.41,0,*7B
1491220960.76,1408,16.63,74114.3,0.89,0.33,0.43,0,*76
1491220961.94,1409,16.63,74112.3,0.89,0.41,0.43,0,*72
1491220963.13,1410,16.63,74112.5,0.89,0.41,0.43,0,*7A
1491220964.34,1411,16.63,74112.0,0.91,0.43,0.47,0,*74
1491220965.58,1412,16.63,74114.5,0.91,0.47,0.55,0,*70
1491220966.82,1413,16.63,74114.5,0.91,0.47,0.47,0,*72
1491220968.03,1414,16.63,74114.3,0.91,0.43,0.55,0,*72
1491220969.19,1415,16.63,74110.3,0.93,0.43,0.43,0,*76
1491220970.38,1416,16.63,74110.5,0.93,0.33,0.43,0,*72
1491220971.59,1417,16.63,74110.5,0.91,0.37,0.43,0,*75
1491220972.77,1418,16.63,74114.3,0.93,0.37,0.43,0,*78
1491220974.01,1419,16.63,74112.5,0.91,0.37,0.47,0,*7F
1491220975.19,1420,16.63,74114.0,0.93,0.43,0.55,0,*77
1491220976.4,1421,16.63,74114.5,0.91,0.43,0.55,0,*74
1491220977.62,1422,16.63,74108.8,0.93,0.47,0.55,0,*71
1491220978.86,1423,16.63,74110.3,0.91,0.47,0.59,0,*7E
1491220980.05,1424,16.63,74112.0,0.93,0.43,0.55,0,*73
1491220981.26,1425,16.63,74108.5,0.91,0.43,0.55,0,*70
1491220982.47,1426,16.63,74108.5,0.93,0.47,0.55,0,*75
1491220983.68,1427,16.63,74114.0,0.91,0.43,0.55,0,*72
1491220984.9,1428,16.63,74110.8,0.93,0.47,0.59,0,*77
1491220986.11,1429,16.63,74112.5,0.97,0.51,0.47,0,*7A
1491220987.33,1430,16.63,74110.8,0.97,0.37,0.47,0,*72
1491220988.56,1431,16.63,74108.0,0.91,0.33,0.37,0,*76
1491220989.77,1432,16.63,74110.8,0.97,0.41,0.37,0,*76
1491220990.97,1433,16.63,74110.5,0.93,0.33,0.33,0,*72
1491220992.18,1434,16.63,74110.8,0.93,0.21,0.33,0,*76
1491220993.39,1435,16.63,74108.3,0.93,0.21,0.25,0,*70
1491220994.6,1436,16.63,74110.5,0.93,0.21,0.25,0,*73
1491220995.81,1437,16.63,74108.8,0.93,0.25,0.33,0,*71
1491220997.04,1438,16.63,74112.0,0.91,0.33,0.33,0,*7B
1491220998.25,1439,16.63,74110.0,0.97,0.29,0.37,0,*73
1491220999.46,1440,16.63,74110.0,0.93,0.33,0.37,0,*72
1491221000.67,1441,16.63,74110.8,0.97,0.41,0.47,0,*75
1491221001.88,1442,16.63,74110.8,0.93,0.33,0.47,0,*77
1491221003.06,1443,16.63,74110.0,0.93,0.33,0.43,0,*72
1491221004.27,1444,16.63,74112.5,0.91,0.37,0.43,0,*73
1491221005.48,1445,16.63,74108.3,0.93,0.33,0.33,0,*73
1491221006.71,1446,16.63,74108.5,0.91,0.33,0.37,0,*76
1491221007.9,1447,16.63,74108.8,0.93,0.37,0.43,0,*72
1491221009.08,1448,16.63,74110.3,0.93,0.33,0.43,0,*79
1491221010.29,1449,16.63,74106.8,0.93,0.21,0.25,0,*7B
1491221011.52,1450,16.63,74110.8,0.91,0.21,0.25,0,*71
1491221012.74,1451,16.63,74110.8,0.93,0.21,0.21,0,*76
1491221013.95,1452,16.63,74110.3,0.93,0.21,0.33,0,*76
1491221015.15,1453,16.63,74108.0,0.93,0.25,0.25,0,*74
1491221016.36,1454,16.63,74108.0,0.93,0.21,0.33,0,*70
1491221017.57,1455,16.63,74106.8,0.93,0.21,0.25,0,*76
1491221018.78,1456,16.63,74110.5,0.93,0.25,0.33,0,*76
1491221019.99,1457,16.63,74110.8,0.93,0.21,0.21,0,*70
1491221021.23,1458,16.63,74108.0,0.91,0.21,0.25,0,*79
1491221022.46,1459,16.63,74110.3,0.91,0.21,0.33,0,*7F
1491221023.68,1460,16.63,74110.5,0.93,0.21,0.37,0,*73
1491221024.88,1461,16.63,74108.5,0.93,0.33,0.37,0,*71
1491221026.09,1462,16.63,74112.5,0.93,0.33,0.37,0,*72
1491221027.3,1463,16.63,74110.5,0.93,0.33,0.37,0,*73
1491221028.5,1464,16.63,74112.3,0.93,0.33,0.37,0,*74
1491221029.71,1465,16.63,74110.5,0.93,0.33,0.47,0,*72
1491221030.92,1466,16.63,74110.8,0.93,0.37,0.47,0,*75
1491221032.11,1467,16.63,74110.8,0.93,0.37,0.43,0,*70
1491221033.29,1468,16.63,74110.5,0.93,0.33,0.43,0,*7B
1491221034.5,1469,16.63,74110.8,0.97,0.37,0.47,0,*7E
1491221035.74,1470,16.63,74114.5,0.91,0.21,0.37,0,*70
1491221036.95,1471,16.63,74112.3,0.93,0.33,0.37,0,*70
1491221038.16,1472,16.63,74112.5,0.93,0.25,0.33,0,*70
1491221039.36,1473,16.63,74112.0,0.93,0.33,0.37,0,*72
1491221040.57,1474,16.63,74112.3,0.93,0.21,0.33,0,*72
1491221041.78,1475,16.63,74112.0,0.93,0.21,0.37,0,*77
1491221042.99,1476,16.63,74112.0,0.93,0.25,0.37,0,*70
1491221044.21,1477,16.63,74108.0,0.97,0.37,0.47,0,*71
1491221045.41,1478,16.63,74110.5,0.93,0.25,0.33,0,*7A
1491221046.62,1479,16.63,74110.0,0.93,0.21,0.33,0,*7F
1491221047.86,1480,16.63,74110.8,0.91,0.25,0.33,0,*7F
1491221049.07,1481,16.63,74112.5,0.93,0.25,0.37,0,*78
1491221050.27,1482,16.63,74110.3,0.93,0.21,0.33,0,*7B
1491221051.48,1483,16.63,74114.8,0.93,0.33,0.37,0,*7D
1491221052.68,1484,16.63,74110.8,0.93,0.33,0.33,0,*7E
1491221053.89,1485,16.63,74110.5,0.93,0.33,0.33,0,*7F
1491221055.1,1486,16.63,74108.5,0.93,0.25,0.25,0,*7C
1491221056.31,1487,16.63,74112.5,0.93,0.21,0.37,0,*7A
1491221057.52,1488,16.63,74112.3,0.93,0.21,0.37,0,*75
1491221058.73,1489,16.63,74114.5,0.93,0.25,0.37,0,*70
1491221059.91,1490,16.63,74112.5,0.93,0.37,0.43,0,*78
1491221061.13,1491,16.63,74112.8,0.97,0.37,0.47,0,*79
1491221062.34,1492,16.63,74110.8,0.97,0.29,0.37,0,*72
1491221063.54,1493,16.63,74110.3,0.97,0.37,0.41,0,*7D
1491221064.75,1494,16.63,74112.0,0.97,0.25,0.37,0,*78
1491221065.97,1495,16.63,74110.3,0.97,0.25,0.29,0,*76
1491221067.17,1496,16.63,74108.3,0.97,0.37,0.37,0,*79
1491221068.38,1497,16.63,74112.8,0.97,0.25,0.37,0,*7B
1491221069.59,1498,16.63,74106.8,0.97,0.25,0.25,0,*77
1491221070.8,1499,16.63,74108.8,0.97,0.25,0.25,0,*76
1491221072.01,1500,16.63,74114.5,0.97,0.25,0.29,0,*7B
1491221073.22,1501,16.63,74110.3,0.97,0.25,0.29,0,*7A
1491221074.43,1502,16.63,74114.0,0.93,0.25,0.25,0,*71
1491221075.64,1503,16.63,74110.5,0.93,0.25,0.37,0,*73
1491221076.85,1504,16.63,74108.8,0.97,0.29,0.37,0,*7C
1491221078.06,1505,16.63,74112.8,0.93,0.33,0.37,0,*72
1491221079.25,1506,16.63,74114.5,0.93,0.37,0.43,0,*76
1491221080.46,1507,16.63,74114.0,0.97,0.37,0.47,0,*77
1491221081.67,1508,16.63,74110.3,0.97,0.37,0.47,0,*78
1491221082.89,1509,16.63,74110.3,0.97,0.47,0.47,0,*7E
1491221084.1,1510,16.63,74110.3,0.97,0.41,0.47,0,*70
1491221085.3,1511,16.63,74114.3,0.97,0.37,0.41,0,*76
1491221086.54,1512,16.63,74108.8,0.99,0.29,0.41,0,*74
1491221087.75,1513,16.63,74114.3,0.97,0.41,0.41,0,*75
1491221088.96,1514,16.63,74110.5,0.97,0.29,0.37,0,*7D
1491221090.17,1515,16.63,74108.5,0.97,0.29,0.37,0,*7C
1491221091.38,1516,16.63,74108.3,0.97,0.25,0.37,0,*73
1491221092.62,1517,16.63,74112.8,0.99,0.37,0.47,0,*78
1491221093.83,1518,16.63,74110.0,0.97,0.41,0.51,0,*7F
1491221095.07,1519,16.63,74112.0,0.99,0.29,0.47,0,*79
1491221096.28,1520,16.63,74112.0,0.97,0.37,0.41,0,*74
1491221097.48,1521,16.63,74110.5,0.97,0.37,0.41,0,*75
1491221098.69,1522,16.63,74108.0,0.97,0.21,0.25,0,*73
1491221099.9,1523,16.63,74110.0,0.97,0.21,0.25,0,*72
1491221101.11,1524,16.63,74106.3,0.97,0.25,0.25,0,*71
1491221102.32,1525,16.63,74108.0,0.97,0.25,0.29,0,*7C
1491221103.53,1526,16.63,74110.8,0.97,0.25,0.25,0,*73
1491221104.74,1527,16.63,74110.8,0.97,0.25,0.25,0,*72
1491221105.95,1528,16.63,74108.8,0.97,0.25,0.29,0,*71
1491221107.16,1529,16.63,74106.3,0.97,0.25,0.29,0,*70
1491221108.37,1530,16.63,74106.5,0.97,0.25,0.25,0,*74
1491221109.61,1531,16.63,74102.3,0.99,0.29,0.29,0,*7B
1491221110.82,1532,16.63,74104.0,0.97,0.25,0.37,0,*75
1491221112.03,1533,16.63,74108.5,0.97,0.29,0.29,0,*77
1491221113.24,1534,16.69,74110.8,0.97,0.25,0.37,0,*73
1491221114.45,1535,16.63,74106.3,0.97,0.25,0.37,0,*72
1491221115.66,1536,16.63,74108.8,0.97,0.29,0.37,0,*7D
1491221116.87,1537,16.63,74110.8,0.97,0.29,0.37,0,*7C
1491221118.08,1538,16.63,74104.8,0.93,0.21,0.33,0,*7B
1491221119.29,1539,16.63,74110.8,0.97,0.41,0.47,0,*7B
1491221120.51,1540,16.63,74110.8,0.97,0.29,0.37,0,*7C
1491221121.74,1541,16.63,74110.3,0.99,0.25,0.41,0,*7E
1491221122.95,1542,16.63,74104.8,0.97,0.37,0.41,0,*70
1491221124.18,1543,16.63,74108.0,0.99,0.41,0.41,0,*7E
1491221125.39,1544,16.63,74110.8,0.97,0.29,0.37,0,*78
1491221126.6,1545,16.63,74106.5,0.97,0.29,0.29,0,*76
1491221127.81,1546,16.63,74108.3,0.97,0.29,0.29,0,*75
1491221129.05,1547,16.63,74108.0,0.99,0.29,0.37,0,*75
1491221130.29,1548,16.63,74110.3,0.99,0.25,0.41,0,*77
1491221131.52,1549,16.63,74106.3,0.99,0.25,0.37,0,*77
1491221132.76,1550,16.63,74106.8,0.99,0.25,0.29,0,*70
1491221134.0,1551,16.63,74106.3,0.99,0.29,0.29,0,*7D
1491221135.23,1552,16.63,74106.5,0.99,0.37,0.37,0,*7E
1491221136.44,1553,16.63,74108.0,0.97,0.37,0.41,0,*70
1491221137.65,1554,16.63,74104.8,0.97,0.25,0.29,0,*7A
1491221138.86,1555,16.63,74108.3,0.97,0.25,0.25,0,*77
1491221140.1,1556,16.63,74106.8,0.99,0.25,0.25,0,*7A
1491221141.31,1557,16.63,74108.3,0.97,0.25,0.37,0,*76
1491221142.54,1558,16.63,74108.8,0.99,0.37,0.41,0,*75
1491221143.77,1559,16.63,74110.5,0.99,0.37,0.41,0,*74
1491221144.98,1560,16.63,74108.5,0.97,0.29,0.41,0,*7F
1491221146.19,1561,16.63,74110.3,0.97,0.29,0.37,0,*7F
1491221147.43,1562,16.63,74108.0,0.99,0.25,0.37,0,*7E
1491221148.66,1563,16.69,74114.3,0.99,0.25,0.25,0,*7C
1491221149.9,1564,16.63,74110.5,0.99,0.25,0.29,0,*77
1491221151.14,1565,16.63,74110.8,0.99,0.29,0.37,0,*75
1491221152.37,1566,16.63,74108.5,0.99,0.29,0.41,0,*77
1491221153.61,1567,16.63,74110.5,0.99,0.25,0.29,0,*74
1491221154.85,1568,16.63,74108.3,0.99,0.25,0.37,0,*74
1491221156.06,1569,16.63,74114.0,0.97,0.29,0.41,0,*76
1491221157.27,1570,16.63,74108.8,0.97,0.29,0.37,0,*7F
1491221158.5,1571,16.63,74110.5,0.99,0.37,0.37,0,*7F
1491221159.74,1572,16.63,74110.8,0.99,0.41,0.47,0,*7A
1491221160.98,1573,16.63,74108.0,0.99,0.41,0.47,0,*7B
1491221162.22,1574,16.63,74110.8,0.99,0.29,0.37,0,*75
1491221163.45,1575,16.63,74108.8,0.99,0.37,0.41,0,*7A
1491221164.66,1576,16.63,74114.8,0.97,0.37,0.37,0,*76
1491221165.88,1577,16.63,74114.3,1.01,0.29,0.29,0,*49
1491221167.08,1578,16.63,74110.8,0.99,0.01,0.13,0,*45
1491221168.29,1579,16.63,74112.8,0.99,0.13,0.09,0,*4C
1491221169.48,1580,16.63,74112.5,1.01,0.09,0.21,0,*7B
1491221170.69,1581,16.63,74112.3,0.97,0.21,0.29,0,*76
1491221171.92,1582,16.63,74114.8,0.99,0.13,0.25,0,*76
1491221173.16,1583,16.63,74110.8,0.99,0.21,0.25,0,*76
1491221174.4,1584,16.63,74114.0,0.99,0.13,0.21,0,*74
1491221175.64,1585,16.63,74112.5,0.99,0.21,0.21,0,*74
1491221176.88,1586,16.63,74110.8,0.99,0.21,0.21,0,*77
1491221178.09,1587,16.63,74110.0,0.97,0.25,0.25,0,*78
1491221179.33,1588,16.63,74108.8,0.99,0.25,0.29,0,*75
1491221180.54,1589,16.63,74112.8,0.97,0.25,0.29,0,*7A
1491221181.78,1590,16.63,74110.3,0.99,0.25,0.25,0,*70
1491221183.01,1591,16.63,74108.5,0.99,0.21,0.25,0,*75
1491221184.25,1592,16.63,74106.8,0.99,0.21,0.29,0,*7A
1491221185.46,1593,16.63,74108.8,0.97,0.25,0.25,0,*7D
1491221186.7,1594,16.63,74108.8,0.99,0.29,0.29,0,*74
1491221187.93,1595,16.63,74108.3,0.99,0.25,0.41,0,*77
1491221189.17,1596,16.63,74110.5,0.99,0.25,0.29,0,*7A
1491221190.4,1597,16.63,74110.3,0.99,0.29,0.25,0,*7B
1491221191.62,1598,16.63,74108.5,0.97,0.29,0.37,0,*79
1491221192.85,1599,16.63,74110.5,0.99,0.25,0.41,0,*7B
1491221194.06,1600,16.63,74112.3,0.97,0.29,0.37,0,*7B
1491221195.3,1601,16.63,74108.5,0.99,0.37,0.37,0,*7B
1491221196.53,1602,16.63,74112.3,0.99,0.37,0.37,0,*78
1491221197.77,1603,16.63,74108.8,0.99,0.29,0.37,0,*76
1491221198.98,1604,16.63,74110.8,0.97,0.37,0.37,0,*70
1491221200.22,1605,16.63,74114.0,0.99,0.41,0.47,0,*79
1491221201.46,1606,16.63,74112.3,0.99,0.29,0.37,0,*73
1491221202.69,1607,16.63,74112.0,0.99,0.29,0.25,0,*71
1491221203.9,1608,16.63,74114.3,0.97,0.29,0.41,0,*72
1491221205.14,1609,16.63,74114.8,0.99,0.37,0.37,0,*73
1491221206.35,1610,16.63,74114.8,0.97,0.41,0.47,0,*73
1491221207.56,1611,16.63,74110.3,0.97,0.41,0.51,0,*75
1491221208.8,1612,16.63,74112.0,0.99,0.37,0.47,0,*7E
1491221210.04,1613,16.63,74112.0,0.99,0.37,0.47,0,*7F
1491221211.24,1614,16.63,74114.3,1.01,0.33,0.41,0,*4A
1491221212.46,1615,16.63,74108.5,1.01,0.29,0.29,0,*4E
1491221213.67,1616,16.63,74112.5,1.01,0.25,0.29,0,*41
1491221214.88,1617,16.63,74110.3,1.01,0.25,0.29,0,*40
1491221216.09,1618,16.63,74110.3,1.01,0.33,0.33,0,*43
1491221217.3,1619,16.63,74112.8,1.01,0.29,0.29,0,*42
1491221218.51,1620,16.63,74112.8,1.01,0.29,0.29,0,*48
1491221219.72,1621,16.63,74110.0,1.01,0.29,0.29,0,*49
1491221220.96,1622,16.63,74108.0,0.99,0.25,0.25,0,*7A
1491221222.19,1623,16.63,74112.8,0.99,0.25,0.25,0,*7B
1491221223.4,1624,16.63,74110.8,0.97,0.25,0.25,0,*72
1491221224.64,1625,16.63,74112.8,0.99,0.29,0.29,0,*7D
1491221225.88,1626,16.63,74108.5,0.99,0.29,0.29,0,*7E
1491221227.12,1627,16.63,74112.3,0.99,0.29,0.37,0,*70
1491221228.35,1628,16.63,74114.0,0.99,0.29,0.29,0,*70
1491221229.59,1629,16.63,74114.8,0.99,0.37,0.29,0,*7E
1491221230.82,1630,16.63,74110.8,0.99,0.25,0.25,0,*79
1491221232.06,1631,16.63,74112.5,0.99,0.29,0.37,0,*77
1491221233.27,1632,16.63,74114.0,0.97,0.37,0.41,0,*74
1491221234.5,1633,16.63,74112.8,0.99,0.37,0.37,0,*7A
1491221235.73,1634,16.69,74118.3,0.99,0.37,0.41,0,*7C
1491221236.95,1635,16.63,74110.0,1.01,0.41,0.41,0,*4C
1491221238.13,1636,16.63,74114.3,1.01,0.41,0.43,0,*4D
1491221239.37,1637,16.69,74118.0,0.99,0.41,0.41,0,*7E
1491221240.57,1638,16.63,74112.3,1.01,0.33,0.33,0,*41
1491221241.73,1639,16.63,74112.5,1.01,0.43,0.43,0,*40
1491221242.95,1640,16.69,74118.0,1.01,0.41,0.51,0,*4F
1491221244.13,1641,16.63,74112.5,1.01,0.43,0.55,0,*48
1491221245.34,1642,16.63,74114.3,1.01,0.41,0.41,0,*4C
1491221246.55,1643,16.63,74110.8,1.01,0.33,0.33,0,*4D
1491221247.76,1644,16.63,74112.5,1.01,0.33,0.41,0,*4F
1491221248.91,1645,16.63,74112.0,1.01,0.43,0.43,0,*4B
1491221250.12,1646,16.63,74108.8,1.01,0.41,0.41,0,*48
1491221251.36,1647,16.63,74114.0,1.03,0.29,0.33,0,*40
1491221252.57,1648,16.63,74114.0,1.01,0.25,0.29,0,*4A
1491221253.81,1649,16.63,74116.3,1.03,0.25,0.29,0,*49
1491221255.02,1650,16.69,74118.5,1.01,0.29,0.33,0,*44
1491221256.25,1651,16.63,74112.5,1.03,0.33,0.33,0,*4C
1491221257.46,1652,16.63,74114.3,1.01,0.29,0.29,0,*4D
1491221258.67,1653,16.63,74114.5,1.01,0.29,0.41,0,*42
1491221259.87,1654,16.63,74118.3,1.01,0.33,0.33,0,*4B
1491221261.08,1655,16.63,74114.3,1.01,0.29,0.41,0,*44
1491221262.29,1656,16.63,74114.3,1.01,0.29,0.33,0,*42
1491221263.5,1657,16.63,74112.5,1.01,0.29,0.29,0,*48
1491221264.72,1658,16.63,74114.5,1.01,0.25,0.29,0,*4B
1491221265.93,1659,16.63,74114.3,1.01,0.29,0.29,0,*46
1491221267.16,1660,16.63,74112.3,1.03,0.29,0.33,0,*45
1491221268.4,1661,16.63,74112.8,1.03,0.29,0.29,0,*4F
1491221269.64,1662,16.63,74112.3,1.03,0.25,0.29,0,*40
1491221270.87,1663,16.63,74112.0,1.03,0.17,0.25,0,*4C
1491221272.1,1664,16.63,74112.0,1.03,0.13,0.17,0,*4E
1491221273.31,1665,16.69,74114.8,1.01,0.25,0.25,0,*49
1491221274.49,1666,16.63,74112.5,1.01,0.05,0.13,0,*7D
1491221275.7,1667,16.63,74114.0,1.01,0.17,0.17,0,*4B
1491221276.88,1668,16.69,74114.8,1.01,0.05,0.17,0,*77
1491221278.1,1669,16.63,74116.3,1.01,0.25,0.25,0,*45
1491221279.31,1670,16.63,74116.5,1.01,0.25,0.29,0,*41
1491221280.52,1671,16.63,74114.5,1.01,0.25,0.29,0,*40
1491221281.73,1672,16.69,74116.5,1.01,0.29,0.33,0,*44
1491221282.94,1673,16.63,74112.8,1.01,0.17,0.25,0,*4F
1491221284.17,1674,16.63,74114.8,0.99,0.13,0.13,0,*79
1491221285.38,1675,16.63,74108.8,1.01,0.25,0.25,0,*48
1491221286.59,1676,16.63,74114.5,1.01,0.25,0.25,0,*4B
1491221287.82,1677,16.63,74112.5,1.03,0.17,0.29,0,*45
1491221289.03,1678,16.63,74112.3,1.01,0.13,0.17,0,*41
1491221290.24,1679,16.63,74114.0,1.01,0.13,0.17,0,*40
1491221291.45,1680,16.63,74116.5,1.01,0.25,0.29,0,*4E
1491221292.69,1681,16.69,74118.0,0.99,0.21,0.29,0,*7B
1491221293.93,1682,16.63,74114.8,0.99,0.29,0.29,0,*70
1491221295.16,1683,16.69,74116.3,0.99,0.29,0.29,0,*71
1491221296.38,1684,16.69,74116.5,1.01,0.29,0.29,0,*46
1491221297.58,1685,16.69,74116.0,1.01,0.29,0.33,0,*4C
1491221298.79,1686,16.69,74116.8,1.01,0.29,0.33,0,*4F
1491221300.0,1687,16.63,74114.0,1.01,0.29,0.33,0,*4E
1491221301.21,1688,16.63,74114.0,1.01,0.29,0.33,0,*41
1491221302.45,1689,16.69,74118.0,1.03,0.29,0.29,0,*49
1491221303.68,1690,16.63,74112.5,1.03,0.29,0.29,0,*41
1491221304.92,1691,16.69,74118.3,1.03,0.25,0.29,0,*4C
1491221306.13,1692,16.63,74112.8,1.01,0.25,0.29,0,*4D
1491221307.37,1693,16.63,74116.8,0.99,0.13,0.13,0,*70
1491221308.57,1694,16.63,74116.5,1.01,0.17,0.25,0,*46
1491221309.78,1695,16.63,74114.3,1.01,0.17,0.17,0,*46
1491221310.94,1696,16.63,74116.0,1.01,0.05,0.05,0,*45
1491221312.1,1697,16.63,74114.0,1.01,0.01,0.01,0,*44
1491221313.3,1698,16.69,74116.0,1.01,0.17,0.25,0,*4A
1491221314.51,1699,16.63,74116.5,1.01,0.17,0.17,0,*4A
1491221315.72,1700,16.69,74118.8,1.01,0.25,0.25,0,*4B
1491221316.93,1701,16.63,74116.5,1.01,0.33,0.29,0,*41
1491221318.14,1702,16.69,74118.8,1.01,0.29,0.29,0,*49
1491221319.35,1703,16.69,74118.0,1.01,0.29,0.29,0,*48
1491221320.56,1704,16.69,74118.8,1.01,0.29,0.25,0,*43
1491221321.77,1705,16.63,74116.0,1.01,0.25,0.25,0,*4E
1491221323.01,1706,16.69,74118.5,1.03,0.25,0.25,0,*4F
1491221324.22,1707,16.63,74118.5,1.01,0.25,0.29,0,*40
1491221325.46,1708,16.63,74112.5,1.03,0.29,0.33,0,*4A
1491221326.67,1709,16.63,74118.3,1.01,0.29,0.25,0,*4E
1491221327.9,1710,16.69,74118.8,1.03,0.17,0.17,0,*48
1491221329.1,1711,16.63,74116.3,1.01,0.17,0.17,0,*4B
1491221330.27,1712,16.63,74118.5,1.01,0.05,0.05,0,*48
1491221331.48,1713,16.63,74116.3,1.01,0.25,0.17,0,*48
1491221332.69,1714,16.63,74118.5,1.01,0.25,0.25,0,*4E
1491221333.9,1715,16.69,74118.5,1.01,0.29,0.29,0,*4F
1491221335.11,1716,16.63,74116.5,1.01,0.29,0.29,0,*4C
1491221336.35,1717,16.63,74116.0,1.03,0.29,0.29,0,*4F
1491221337.56,1718,16.63,74116.0,1.01,0.25,0.29,0,*4E
1491221338.77,1719,16.63,74116.3,1.01,0.25,0.29,0,*4F
1491221339.98,1720,16.69,74118.3,1.01,0.17,0.29,0,*44